Pierre

operational
NORAD ID: 64529 Int'l Des: 2025-135 Owner: GHG Country: CA
LEOCIRCULARRETROGRADESSO

Pierreについて

説明を読み込み中...

リアルタイム位置

3D地球を読み込み中...

次回通過

高度履歴

Altitude vs Time

uPlot chart will show altitude changes over time

軌道要素

1 64529U 25135B 25340.89446100 .00006441 00000-0 31449-3 0 9997
2 64529 97.4618 92.8524 0006406 117.4953 242.6933 15.18595707 25621
Epoch: Dec 6, 2025 • Age: 12 hours

現在のステータス

高度 510.0 km
速度 7.61 km/s
衛星直下点 7.66°N, 58.56°E
打ち上げ日 Jun 23, 2025
運用期間 0.4 years
タイプ other

技術仕様

分類 Payload
質量 15.00 kg
乾燥質量 15.00 kg
総質量 15.00 kg
長さ 0.40 m
直径 0.20 m
スパン 0.40 m
形状 Box
製造者 UTIAS
バスタイプ Nemo-V1
フェーズステータス In Orbit
所有者/国 GHG/CA

大規模コンステレーション

Loading constellations...